FW1786 Weather Reports


time (UTC)temp
C
wind
direction
speed
KPH
gust
KPH
rain 1hr
cm
rain 24hr
cm
rain mn
cm
humidity
%
barometer
mb
20260508050020 8 192 0.0 3.2 0.00 0.00 0.00 89 1015.7
20260508044521 8 240 0.0 3.2 0.00 0.00 0.00 88 1015.8
20260508043024 8 182 0.0 1.6 0.00 0.00 0.00 87 1016.0
20260508041523 9 188 0.0 4.8 0.00 0.00 0.00 86 1015.8
20260508040040 9 180 1.6 4.8 0.00 0.00 0.00 85 1015.9
20260508034536 9 186 1.6 3.2 0.00 0.00 0.00 86 1016.0
20260508033022 10 188 0.0 1.6 0.00 0.00 0.00 86 1015.8
20260508031523 10 188 0.0 4.8 0.00 0.00 0.00 83 1015.7
20260508030026 11 190 1.6 4.8 0.00 0.00 0.00 81 1015.6
20260508024528 11 185 0.0 4.8 0.00 0.00 0.00 80 1015.4
20260508023024 11 188 1.6 3.2 0.00 0.00 0.00 79 1015.4
20260508021520 11 189 0.0 3.2 0.00 0.00 0.00 78 1015.4
20260508020008 12 184 1.6 3.2 0.00 0.00 0.00 78 1015.1
20260508014508 12 293 0.0 0.0 0.00 0.00 0.00 77 1014.7
20260508013011 12 293 0.0 1.6 0.00 0.00 0.00 75 1014.5
20260508011509 13 293 0.0 0.0 0.00 0.00 0.00 73 1014.4
20260508010013 15 294 0.0 1.6 0.00 0.00 0.00 68 1014.4
20260508004508 16 294 0.0 0.0 0.00 0.00 0.00 61 1014.5
20260508003012 17 294 0.0 1.6 0.00 0.00 0.00 59 1014.5
20260508001514 18 293 0.0 6.4 0.00 0.00 0.00 51 1014.5
20260508000017 18 352 0.0 4.8 0.00 0.00 0.00 50 1014.5
20260507234528 18 338 0.0 6.4 0.00 0.00 0.00 51 1014.5
20260507233017 19 129 1.6 8.0 0.00 0.00 0.00 42 1014.6
20260507231518 19 317 1.6 6.4 0.00 0.00 0.00 47 1014.7
20260507230023 19 343 1.6 9.7 0.00 0.00 0.00 42 1014.7
20260507224522 20 329 0.0 8.0 0.00 0.00 0.00 45 1015.0
20260507223021 20 257 1.6 11.3 0.00 0.00 0.00 45 1015.1
20260507221530 20 243 0.0 12.9 0.00 0.00 0.00 41 1015.0
20260507220021 20 210 3.2 8.0 0.00 0.00 0.00 42 1015.0
20260507214524 20 15 3.2 6.4 0.00 0.00 0.00 41 1015.2
20260507213029 20 352 3.2 12.9 0.00 0.00 0.00 42 1015.4
20260507211528 20 240 6.4 12.9 0.00 0.00 0.00 40 1015.4
20260507210028 19 255 3.2 12.9 0.00 0.00 0.00 40 1015.6
20260507204523 20 210 4.8 11.3 0.00 0.00 0.00 38 1015.6
20260507203027 20 252 1.6 12.9 0.00 0.00 0.00 40 1015.8
20260507201528 19 244 1.6 6.4 0.00 0.00 0.00 39 1016.1
20260507200013 19 30 6.4 14.5 0.00 0.00 0.00 38 1016.1
20260507194523 19 297 3.2 12.9 0.00 0.00 0.00 40 1016.6
20260507193015 19 184 4.8 14.5 0.00 0.00 0.00 41 1016.7
20260507191512 18 305 3.2 14.5 0.00 0.00 0.00 38 1016.7
20260507190018 18 186 1.6 11.3 0.00 0.00 0.00 40 1016.8
20260507184521 18 217 3.2 8.0 0.00 0.00 0.00 39 1017.0
20260507183017 18 144 3.2 11.3 0.00 0.00 0.00 41 1017.3
20260507181508 18 144 4.8 11.3 0.00 0.00 0.00 36 1017.5
20260507180018 17 317 3.2 9.7 0.00 0.00 0.00 39 1017.8
20260507174519 17 260 3.2 17.7 0.00 0.00 0.00 1018.1
20260507173037 17 184 1.6 8.0 0.00 0.00 0.00 42 1018.2
20260507171520 17 208 1.6 12.9 0.00 0.00 0.00 42 1018.3
20260507170019 17 291 3.2 11.3 0.00 0.00 0.00 1018.4
20260507164522 16 115 0.0 6.4 0.00 0.00 0.00 42 1018.5
20260507163011 16 295 1.6 8.0 0.00 0.00 0.00 47 1018.8
20260507161523 15 182 1.6 9.7 0.00 0.00 0.00 46 1019.0
20260507160027 15 190 1.6 6.4 0.00 0.00 0.00 52 1019.2
20260507154516 14 186 1.6 8.0 0.00 0.00 0.00 46 1019.4
20260507153022 13 187 1.6 4.8 0.00 0.00 0.00 55 1019.2
20260507151517 13 340 1.6 4.8 0.00 0.00 0.00 66 1019.2
20260507150017 12 128 0.0 3.2 0.00 0.00 0.00 72 1019.3
20260507144534 11 345 1.6 4.8 0.00 0.00 0.00 74 1019.4
20260507143023 10 216 0.0 4.8 0.00 0.00 0.00 76 1019.4
20260507141526 9 302 0.0 3.2 0.00 0.00 0.00 84 1019.4
20260507140025 8 126 0.0 4.8 0.00 0.00 0.00 90 1019.5
20260507134520 7 224 0.0 3.2 0.00 0.00 0.00 93 1019.9
20260507133021 6 180 0.0 1.6 0.00 0.00 0.00 94 1019.8
20260507131524 5 182 0.0 3.2 0.00 0.00 0.00 94 1019.9
20260507130023 4 138 0.0 3.2 0.00 0.00 0.00 93 1019.8
20260507124534 4 138 0.0 1.6 0.00 0.00 0.00 93 1019.7
20260507123021 3 138 0.0 3.2 0.00 0.00 0.00 93 1019.4
20260507121518 3 160 0.0 3.2 0.00 0.00 0.00 93 1019.5
20260507120019 3 161 0.0 6.4 0.00 0.00 0.00 94 1019.3
20260507114534 3 175 0.0 3.2 0.00 0.00 0.00 93 1019.5
20260507113038 3 184 0.0 1.6 0.00 0.00 0.00 93 1018.9
20260507111528 3 183 0.0 1.6 0.00 0.00 0.00 93 1018.8
20260507110022 3 178 0.0 0.0 0.00 0.00 0.00 94 1018.9
20260507104508 3 178 0.0 1.6 0.00 0.00 0.00 93 1018.8
20260507103017 3 178 0.0 1.6 0.00 0.00 0.00 93 1018.8
20260507101519 3 173 1.6 4.8 0.00 0.00 0.00 93 1018.8
20260507100018 3 189 0.0 1.6 0.00 0.00 0.00 93 1019.1
20260507094517 3 189 0.0 3.2 0.00 0.00 0.00 93 1018.8
20260507093010 3 192 0.0 3.2 0.00 0.00 0.00 93 1019.0
20260507091512 3 188 1.6 4.8 0.00 0.00 0.00 93 1018.9
20260507090013 3 202 0.0 3.2 0.00 0.00 0.00 93 1018.6
20260507084509 3 181 0.0 3.2 0.00 0.00 0.00 93 1018.5
20260507083012 3 186 0.0 1.6 0.00 0.00 0.00 93 1018.5
20260507081511 3 186 0.0 1.6 0.00 0.00 0.00 93 1018.2
20260507080013 4 186 0.0 1.6 0.00 0.00 0.00 93 1018.6
20260507074519 4 187 0.0 3.2 0.00 0.00 0.00 92 1018.5
20260507073016 4 186 0.0 3.2 0.00 0.00 0.00 92 1018.6
20260507071517 5 190 1.6 3.2 0.00 0.03 0.00 92 1018.8
20260507070018 5 180 0.0 3.2 0.00 0.05 0.00 92 1018.8
20260507064519 5 184 1.6 3.2 0.00 0.05 0.00 92 1018.7
20260507063020 5 177 0.0 1.6 0.00 0.05 0.00 92 1018.8
20260507061523 5 177 0.0 3.2 0.00 0.05 0.00 92 1018.9
20260507060022 5 185 0.0 3.2 0.00 0.05 0.00 92 1018.9
20260507054521 5 186 0.0 3.2 0.00 0.05 0.00 92 1018.6
20260507053026 6 192 0.0 3.2 0.00 0.05 0.00 92 1018.4
20260507051520 6 179 0.0 3.2 0.00 0.05 0.00 92 1018.3